2022 SW1
ephemeris date magn radius delta ra dec elong phase
Today5 Sep 202633.52.918 AU3.708 AU12h53m-07°47'33.3°10.9°
2022 SW1 - 2026-09-05
astro.vanbuitenen.nl


 
-1 year
-1 month
-1 day
Now
+1 day
+1 month
+1 year

The interactive orbit chart above shows the body's path through the solar system and its position at the given date. Green and blue lines are shown perpendicular to the ecliptic plane: Green if the path is above the ecliptic plane, blue if it is below. (Left-click and drag to rotate the view; Right-click and drag to move the view; Use scroll wheel to zoom in our out.)

The orbital elements of 2022 SW1 are:

            e (Eccentricity)                : 0.5236000
            a (Semimajor axis)              : 1.9491974
            i (Inclination)                 : 4.90715
            Ω (Longitude of ascending node) : 357.01052
            ω (Argument of perihelion)      : 39.64739
            M (Mean anomaly)                : 120.43874
            Epoch                           : 2026 Jun 09

            L (Longitude of perihelion)     : 36.55458
            B (Latitude of perihelion)      : 3.12879
            P (Orbital period in years)     : 2.72            
        

The light curve chart below shows the estimated development of the minor planet's magnitude.


The all-sky chart below shows the path of the minor planet over the same period as the light curve. The current position is marked yellow.





The following chart shows the path of the minor planet in the next few days. The field of view is optimized for (~10x50) binoculars and finderscopes.




Ephemerides:
Date       Time       RA (2000)    DEC (2000)    delta   radius  elong  phase   PA    magn
2026-09-05 00:00 UT   12 53 36.2   -07 47 23     3.708    2.918   33.3   10.9   116   33.5 
2026-09-05 06:03 UT   12 53 54.9   -07 49 23     3.710    2.919   33.1   10.9   116   33.5 
2026-09-06 00:00 UT   12 54 50.2   -07 55 21     3.717    2.920   32.7   10.7   116   33.5 
2026-09-07 00:00 UT   12 56 04.3   -08 03 19     3.726    2.921   32.0   10.5   116   33.5 
2026-09-08 00:00 UT   12 57 18.7   -08 11 18     3.735    2.922   31.4   10.3   116   33.5 
2026-09-09 00:00 UT   12 58 33.2   -08 19 17     3.743    2.924   30.8   10.2   116   33.5 
2026-09-10 00:00 UT   12 59 47.9   -08 27 17     3.752    2.925   30.1   10.0   116   33.5 
2026-09-11 00:00 UT   13 01 02.9   -08 35 17     3.760    2.926   29.5    9.8   116   33.5 
2026-09-12 00:00 UT   13 02 18.0   -08 43 17     3.768    2.927   28.9    9.6   116   33.5 
2026-09-13 00:00 UT   13 03 33.3   -08 51 18     3.776    2.929   28.2    9.4   116   33.5 
2026-09-14 00:00 UT   13 04 48.7   -08 59 19     3.784    2.930   27.6    9.2   116   33.5 
2026-09-15 00:00 UT   13 06 04.4   -09 07 20     3.792    2.931   27.0    9.0   116   33.5 
2026-09-16 00:00 UT   13 07 20.2   -09 15 21     3.799    2.932   26.3    8.7   116   33.5 
2026-09-17 00:00 UT   13 08 36.2   -09 23 23     3.806    2.933   25.7    8.5   116   33.5 
2026-09-18 00:00 UT   13 09 52.4   -09 31 24     3.814    2.934   25.1    8.3   116   33.5 
2026-09-19 00:00 UT   13 11 08.7   -09 39 25     3.821    2.935   24.4    8.1   117   33.5 
2026-09-20 00:00 UT   13 12 25.2   -09 47 27     3.827    2.937   23.8    7.9   117   33.5 
2026-09-21 00:00 UT   13 13 41.8   -09 55 28     3.834    2.938   23.2    7.7   117   33.5 
2026-09-22 00:00 UT   13 14 58.6   -10 03 30     3.841    2.939   22.5    7.5   117   33.5 
2026-09-23 00:00 UT   13 16 15.5   -10 11 31     3.847    2.940   21.9    7.3   117   33.5 
2026-09-24 00:00 UT   13 17 32.6   -10 19 32     3.853    2.941   21.3    7.1   117   33.5 
2026-09-25 00:00 UT   13 18 49.9   -10 27 33     3.859    2.942   20.6    6.9   117   33.5 
2026-09-26 00:00 UT   13 20 07.3   -10 35 33     3.865    2.943   20.0    6.7   117   33.5 
2026-09-27 00:00 UT   13 21 24.8   -10 43 34     3.871    2.944   19.4    6.5   118   33.4 
2026-09-28 00:00 UT   13 22 42.5   -10 51 34     3.876    2.945   18.7    6.3   118   33.4 
2026-09-29 00:00 UT   13 24 00.3   -10 59 33     3.881    2.946   18.1    6.1   118   33.4 
2026-09-30 00:00 UT   13 25 18.3   -11 07 33     3.886    2.947   17.5    5.9   118   33.4 


    Terminology:
            
    delta:  distance between minor planet and earth in AU
    radius: distance between minor planet and sun in AU
    magn:   magnitude (brightness) estimate    
    ra:     right ascension in hours (24h = 360deg)
    dec:    declination in degrees
    elong:  elongation in degrees (angle sun-earth-minor planet)    
    phase:  phase angle in degrees (angle sun-minor planet-earth)        
    AU:     Astronomical Unit (mean distance between earth and sun: 149597870.7 km
    

Orbital elements provided by the MPC (Minor Planet Center).
Calculations by a modified version of AAPlus, a C# implementation of the AA+ project by PJ Naughter from the algorithms presented in the book "Astronomical Algorithms" by Jean Meeus.
NGC2000 dso catalog and star labels from VizieR as provided by the Strasbourg astronomical Data Center.
Tycho2 catalog from the ESO archive.